CW0318 Weather Reports


Display with metric or nautical units.
time (UTC)temp
F
wind
direction
speed
MPH
gust
MPH
rain 1hr
in
rain 24hr
in
rain mn
in
humidity
%
barometer
mb
20260507101332 45 282 0.0 0.0 0.00 0.00 0.00 83 1018.2
20260507100312 45 282 0.0 0.0 0.00 0.00 0.00 83 1018.2
20260507095312 45 282 0.0 0.0 0.00 0.00 0.00 81 1018.0
20260507094312 45 282 0.0 0.0 0.00 0.00 0.00 81 1018.0
20260507093311 45 282 0.0 0.0 0.00 0.00 0.00 82 1018.0
20260507092311 46 282 0.0 0.0 0.00 0.00 0.00 82 1017.7
20260507091312 46 282 0.0 0.0 0.00 0.00 0.00 81 1017.9
20260507090331 46 282 0.0 0.0 0.00 0.00 0.00 81 1018.1
20260507085331 46 282 0.0 0.0 0.00 0.00 0.00 81 1018.2
20260507084311 47 282 0.0 0.0 0.00 0.00 0.00 80 1018.3
20260507083311 47 282 0.0 0.0 0.00 0.00 0.00 80 1018.6
20260507082331 46 282 0.0 0.0 0.00 0.00 0.00 81 1018.3
20260507081311 46 282 0.0 0.0 0.00 0.00 0.00 81 1018.0
20260507080311 47 282 0.0 0.0 0.00 0.00 0.00 81 1018.2
20260507075311 47 282 0.0 0.0 0.00 0.00 0.00 81 1018.0
20260507074310 47 282 0.0 0.0 0.00 0.00 0.00 80 1018.2
20260507073310 47 282 0.0 0.0 0.00 0.00 0.00 80 1018.2
20260507072310 47 282 0.0 0.0 0.00 0.00 0.00 79 1018.2
20260507071310 48 282 0.0 0.0 0.00 0.00 0.00 78 1018.3
20260507070310 48 282 0.0 0.0 0.00 0.00 0.00 77 1018.4
20260507065310 48 282 0.0 0.0 0.00 0.00 0.00 76 1018.6
20260507064309 49 282 0.0 0.0 0.00 0.00 0.00 75 1018.6
20260507063309 50 282 0.0 0.0 0.00 0.00 0.00 73 1018.7
20260507062429 50 282 0.0 1.0 0.00 0.00 0.00 72 1018.5
20260507061329 50 282 0.0 1.0 0.00 0.00 0.00 70 1018.4
20260507060309 50 282 0.0 1.0 0.00 0.00 0.00 70 1018.3
20260507055309 51 282 0.0 0.0 0.00 0.00 0.00 69 1018.2
20260507054309 51 282 0.0 0.0 0.00 0.00 0.00 67 1018.3
20260507053309 52 282 0.0 0.0 0.00 0.00 0.00 66 1018.3
20260507052308 53 282 1.0 3.0 0.00 0.00 0.00 64 1018.2
20260507051308 53 316 2.0 3.0 0.00 0.00 0.00 62 1018.2
20260507050308 54 9 0.0 0.0 0.00 0.00 0.00 61 1018.1
20260507045308 54 355 2.0 3.0 0.00 0.00 0.00 60 1017.9
20260507044308 54 360 1.0 3.0 0.00 0.00 0.00 61 1018.0
20260507043308 54 22 1.0 3.0 0.00 0.00 0.00 60 1018.0
20260507042307 54 15 3.0 3.0 0.00 0.00 0.00 61 1018.1
20260507041307 54 21 2.0 3.0 0.00 0.00 0.00 61 1017.9
20260507040307 54 13 0.0 3.0 0.00 0.00 0.00 62 1018.0
20260507035307 54 5 2.0 3.0 0.00 0.00 0.00 62 1018.1
20260507034327 54 14 3.0 3.0 0.00 0.00 0.00 63 1018.0
20260507033327 54 28 1.0 2.0 0.00 0.00 0.00 63 1018.0
20260507032327 54 32 1.0 3.0 0.00 0.00 0.00 62 1017.9
20260507031307 54 22 1.0 3.0 0.00 0.00 0.00 62 1017.7
20260507030306 54 355 0.0 3.0 0.00 0.00 0.00 62 1017.7
20260507025307 55 9 1.0 4.0 0.00 0.00 0.00 62 1017.6
20260507024306 55 11 0.0 4.0 0.00 0.00 0.00 61 1017.5
20260507023306 56 26 1.0 2.0 0.00 0.00 0.00 60 1017.5
20260507022306 56 72 0.0 3.0 0.00 0.00 0.00 60 1017.4
20260507021306 56 325 0.0 3.0 0.00 0.00 0.00 59 1017.3
20260507020306 57 323 0.0 1.0 0.00 0.00 0.00 59 1017.3
20260507015306 57 5 2.0 3.0 0.00 0.00 0.00 58 1017.0
20260507014306 58 360 0.0 2.0 0.00 0.00 0.00 57 1017.0
20260507013305 58 5 2.0 2.0 0.00 0.00 0.00 56 1016.8
20260507012306 59 11 0.0 3.0 0.00 0.00 0.00 55 1016.8
20260507011305 59 340 1.0 3.0 0.00 0.00 0.00 54 1016.7
20260507010305 60 355 2.0 3.0 0.00 0.00 0.00 53 1016.6
20260507005306 60 24 3.0 4.0 0.00 0.00 0.00 52 1016.5
20260507004305 61 53 2.0 4.0 0.00 0.00 0.00 51 1016.2
20260507003325 61 22 0.0 3.0 0.00 0.00 0.00 50 1016.2
20260507002306 62 40 1.0 7.0 0.00 0.00 0.00 50 1016.1
20260507001304 62 9 2.0 7.0 0.00 0.00 0.00 48 1016.1
20260507000306 62 51 0.0 3.0 0.00 0.00 0.00 48 1015.9
20260506235306 63 5 3.0 10.0 0.00 0.00 0.00 46 1016.0
20260506234304 63 15 2.0 7.0 0.00 0.00 0.00 47 1015.8
20260506233304 64 39 2.0 3.0 0.00 0.00 0.00 47 1015.8
20260506232306 64 23 4.0 8.0 0.00 0.00 0.00 45 1015.9
20260506231303 64 32 3.0 8.0 0.00 0.00 0.00 47 1015.6
20260506230303 64 36 3.0 6.0 0.00 0.00 0.00 47 1015.5
20260506225305 64 61 3.0 10.0 0.00 0.00 0.00 47 1015.5
20260506224323 64 49 2.0 10.0 0.00 0.00 0.00 50 1015.3
20260506223303 64 355 3.0 5.0 0.00 0.00 0.00 48 1015.4
20260506222323 64 79 8.0 10.0 0.00 0.00 0.00 52 1015.3
20260506221323 63 342 3.0 9.0 0.00 0.00 0.00 49 1015.2
20260506220303 63 331 3.0 9.0 0.00 0.00 0.00 49 1015.2
20260506215305 62 44 8.0 12.0 0.00 0.00 0.00 49 1015.0
20260506214302 63 108 3.0 12.0 0.00 0.00 0.00 49 1015.1
20260506213302 62 57 3.0 3.0 0.00 0.00 0.00 53 1015.3
20260506212305 63 360 4.0 10.0 0.00 0.00 0.00 50 1015.2
20260506211302 63 55 0.0 9.0 0.00 0.00 0.00 50 1015.2
20260506210342 63 303 3.0 8.0 0.00 0.00 0.00 50 1015.3
20260506205305 63 29 4.0 8.0 0.00 0.00 0.00 49 1015.5
20260506204301 63 30 1.0 6.0 0.00 0.00 0.00 52 1015.4
20260506203301 63 32 2.0 6.0 0.00 0.00 0.00 51 1015.7
20260506202301 63 30 3.0 10.0 0.00 0.00 0.00 55 1015.8
20260506201301 63 71 3.0 8.0 0.00 0.00 0.00 51 1016.1
20260506200321 63 346 1.0 4.0 0.00 0.00 0.00 52 1016.3
20260506195321 64 345 2.0 10.0 0.00 0.00 0.00 51 1016.0
20260506194301 64 41 1.0 10.0 0.00 0.00 0.00 51 1015.8
20260506193300 63 51 3.0 10.0 0.00 0.00 0.00 54 1016.1
20260506192300 62 342 5.0 11.0 0.00 0.00 0.00 53 1016.4
20260506191320 62 40 2.0 11.0 0.00 0.00 0.00 54 1016.4
20260506190300 62 94 3.0 7.0 0.00 0.00 0.00 56 1016.7
20260506185300 61 187 1.0 11.0 0.00 0.00 0.00 56 1016.7
20260506184300 62 67 2.0 9.0 0.00 0.00 0.00 54 1016.6
20260506183320 62 114 2.0 4.0 0.00 0.00 0.00 53 1016.8
20260506182300 62 223 3.0 9.0 0.00 0.00 0.00 54 1016.9
20260506181259 62 77 6.0 8.0 0.00 0.00 0.00 55 1017.0
20260506180319 61 349 4.0 6.0 0.00 0.00 0.00 57 1017.1
20260506175259 61 321 7.0 10.0 0.00 0.00 0.00 57 1017.1
20260506174259 61 5 7.0 10.0 0.00 0.00 0.00 56 1017.2
20260506173259 61 71 3.0 8.0 0.00 0.00 0.00 56 1017.5
20260506172259 61 53 3.0 10.0 0.00 0.00 0.00 58 1017.8
20260506171319 61 5 4.0 9.0 0.00 0.00 0.00 55 1018.0
20260506170258 59 68 2.0 8.0 0.00 0.00 0.00 57 1018.2
20260506165258 58 66 3.0 9.0 0.00 0.00 0.00 60 1018.4
20260506164258 58 88 3.0 9.0 0.00 0.00 0.00 62 1018.3
20260506163258 58 61 8.0 8.0 0.00 0.00 0.00 60 1018.0
20260506162258 58 275 0.0 8.0 0.00 0.00 0.00 63 1018.1
20260506161258 56 35 2.0 8.0 0.00 0.00 0.00 62 1018.1
20260506160258 56 49 3.0 4.0 0.00 0.00 0.00 63 1018.1
20260506155338 56 336 3.0 9.0 0.00 0.00 0.00 63 1017.8
20260506154257 56 17 3.0 9.0 0.00 0.00 0.00 63 1017.5
20260506153257 55 37 2.0 4.0 0.00 0.00 0.00 64 1017.3
20260506152257 54 94 3.0 10.0 0.00 0.00 0.00 62 1016.7
20260506151257 54 11 7.0 10.0 0.00 0.00 0.00 64 1016.4
20260506150304 54 65 3.0 8.0 0.00 0.00 0.00 64 1016.3
20260506145257 53 65 3.0 10.0 0.00 0.00 0.00 65 1016.5
20260506144257 53 12 4.0 10.0 0.00 0.00 0.00 66 1016.5
20260506143336 53 48 10.0 10.0 0.00 0.00 0.00 67 1016.7
20260506142256 52 71 3.0 13.0 0.00 0.00 0.00 68 1016.3
20260506141256 51 36 3.0 12.0 0.00 0.00 0.00 70 1016.5
20260506140256 51 55 6.0 7.0 0.00 0.00 0.00 72 1016.5
20260506135316 51 333 1.0 14.0 0.00 0.00 0.00 73 1016.4
20260506134256 51 35 3.0 10.0 0.00 0.00 0.00 74 1016.6
20260506133256 50 77 4.0 7.0 0.00 0.00 0.00 75 1016.7
20260506132256 50 340 3.0 9.0 0.00 0.00 0.00 76 1016.5
20260506131255 50 14 1.0 9.0 0.00 0.00 0.00 77 1016.7
20260506130255 50 11 4.0 8.0 0.00 0.00 0.00 77 1016.4
20260506125255 49 19 3.0 10.0 0.00 0.00 0.00 77 1016.3
20260506124255 49 83 1.0 9.0 0.00 0.00 0.00 77 1016.1
20260506123255 49 355 2.0 5.0 0.00 0.00 0.00 79 1016.2
20260506122255 49 330 9.0 11.0 0.00 0.00 0.00 79 1015.9
20260506121255 49 15 4.0 11.0 0.00 0.00 0.00 79 1015.5
20260506120254 48 254 1.0 8.0 0.00 0.00 0.00 80 1015.5
20260506115254 48 355 4.0 10.0 0.00 0.00 0.00 81 1015.6
20260506114314 48 24 1.0 6.0 0.00 0.00 0.00 81 1015.8
20260506113254 49 360 3.0 6.0 0.00 0.00 0.00 81 1015.5
20260506112254 49 244 3.0 5.0 0.00 0.00 0.00 80 1015.6
20260506111254 49 346 2.0 5.0 0.00 0.00 0.00 79 1015.4
20260506110254 49 327 0.0 2.0 0.00 0.00 0.00 79 1015.2
20260506105253 49 295 0.0 10.0 0.00 0.00 0.00 78 1015.1
20260506104254 49 360 0.0 10.0 0.00 0.00 0.00 76 1014.7
20260506103253 49 28 2.0 4.0 0.00 0.00 0.00 75 1014.8
20260506102253 49 314 2.0 9.0 0.00 0.00 0.00 75 1014.7